World > North America > United States > Michigan > Sand Point  

Sand Point, MI Hourly Weather Updates

Feedback E-mail the Weather

Quick Clicks

Sand Point, MI Weather Maps

°F °C°F °C
Sand Point Weather Map
UTC Time: 5/23/2024, 15:30
Your Time:

Sand Point, MI Regional Weather

Expires:202405231600;;724738
ASUS43 KDTX 231510
RWRMI 
MICHIGAN HOURLY REGIONAL WEATHER ROUNDUP
NATIONAL WEATHER SERVICE DETROIT/PONTIAC MI
1100 AM EDT THU MAY 23 2024

NOTE: "FAIR" INDICATES FEW OR NO CLOUDS BELOW 12,000 FEET WITH NO
SIGNIFICANT WEATHER AND/OR OBSTRUCTION TO VISIBILITY.


MIZ047>049-052>055-059>063-066>070-074>076-081>083-231600-
SOUTHEAST LOWER MICHIGAN
  
CITY           SKY/WX    TMP DP  RH WIND       PRES   REMARKS
ADRIAN         SUNNY     74  46  36 W9        29.97F TC  23           
ALMA           MOSUNNY   69  46  43 SW10      29.93S TC  20           
ANN ARBOR      SUNNY     72  48  42 W13       29.95F TC  22           
BAD AXE        SUNNY     68  50  51 SW7       29.90F TC  20           
CARO           MOSUNNY   70  50  48 SW9       29.92R TC  21           
DETROIT CITY   SUNNY     76  41  28 W12       29.95S TC  24           
DETROIT        MOSUNNY   74  47  38 W13       29.95F TC  23           
FLINT          SUNNY     72  49  44 W9        29.94S TC  22           
GROSSE ILE     PTSUNNY   74  30  19 SW7G20    29.96S TC  24           
HILLSDALE      SUNNY     71  33  24 W7        29.98S TC  22           
HOWELL         SUNNY     72  46  40 SW12      29.95F TC  22           

CITY           SKY/WX    TMP DP  RH WIND       PRES   REMARKS
JACKSON        SUNNY     71  47  42 SW15      29.96F TC  22           
LAMBERTVILLE   SUNNY     75  42  30 CALM      29.97S TC  24           
LANSING        SUNNY     71  50  47 SW9G18    29.94F TC  22           
LAPEER         SUNNY     72  46  39 W8        29.94R TC  22           
MASON          SUNNY     72  40  30 W9        29.95F TC  22           
MONROE         SUNNY     75  43  31 NW10      29.95S TC  24           
MT. CLEMENS    MOSUNNY   74  47  37 SW8       29.91S TC  23           
PONTIAC        MOSUNNY   72  45  37 W12       29.96R TC  22           
PORT HOPE        N/A     72  51  47 MISG      29.88F TC  22           
PORT HURON     SUNNY     72  43  35 SW8       29.93S TC  22           
TRI CITIES     MOSUNNY   69  51  52 SW13G20   29.92S TC  21           
MIDLAND        MOSUNNY   70  50  48 S7        29.90S TC  21           
TROY           SUNNY     75  40  28 W8G21     29.96S TC  24           
SAGINAW HB     MOSUNNY   70  52  52 SW10      29.91S TC  21           
$$

SKY/WX - Weather  TMP - Temperature  DP - Dew Point  RH - Humidity
WIND - Wind Direction/Speed PRES - Barometric Pressure VSB - Visibility
WCI - Wind Chill Index E13G22 Wind - East Wind 13 mph/Gusts of 22 mph

Trending Headlines

Trending Entertainment Headlines

Sand Point Radar Loop

Use the map search tool if you want to place a location marker on the radar map...

Sand Point Quick Facts

National Two Day Weather Forecast


E-mail the Sand Point Weather Forecast

Voice your opinion or tell us about page issues...